Date,TemperatureHighF,TemperatureAvgF,TemperatureLowF,DewpointHighF,DewpointAvgF,DewpointLowF,HumidityHigh,HumidityAvg,HumidityLow,PressureMaxIn,PressureMinIn,WindSpeedMaxMPH,WindSpeedAvgMPH,GustSpeedMaxMPH,PrecipitationSumIn
2013-1-1,28,16,8,23,13,6,97,89,71,0.00,40.00,7,3,12,0.00
2013-1-2,30,14,3,20,10,0,95,84,61,0.00,40.00,5,2,7,0.00
2013-1-3,32,15,2,17,10,-2,96,82,52,0.00,40.00,9,2,12,0.00
2013-1-4,33,18,7,21,14,5,96,84,54,0.00,40.00,5,2,6,0.00
2013-1-5,32,24,12,30,22,11,100,93,76,0.00,40.00,7,3,11,0.07
2013-1-6,33,30,28,33,30,28,100,100,100,0.00,40.00,7,4,10,0.07
2013-1-7,40,32,27,39,31,27,100,100,96,0.00,40.00,8,4,11,0.00
2013-1-8,43,33,27,39,32,27,100,98,81,0.00,40.00,9,4,12,0.00
2013-1-9,40,33,20,36,31,19,100,92,77,0.00,40.00,18,10,28,0.05
2013-1-10,31,24,14,25,21,13,100,88,73,0.00,40.00,13,8,21,0.01
2013-1-11,28,20,4,26,17,2,99,87,59,0.00,40.00,14,8,21,0.00
2013-1-12,18,6,-3,11,2,-7,92,83,72,0.00,40.00,4,2,6,0.00
2013-1-13,20,4,-7,14,0,-12,89,83,64,0.00,40.00,5,2,7,0.00
2013-1-14,24,9,-3,11,4,-7,91,79,56,0.00,40.00,8,3,9,0.00
2013-1-15,31,14,3,15,8,0,95,79,49,0.00,40.00,5,3,7,0.00
2013-1-16,35,15,3,20,11,1,99,84,45,0.00,40.00,6,3,7,0.00
2013-1-17,35,16,2,22,12,0,99,86,53,0.00,40.00,4,2,5,0.00
2013-1-18,37,17,1,24,13,-2,100,86,54,0.00,40.00,5,2,7,0.00
2013-1-19,38,16,1,24,11,-2,100,85,46,0.00,40.00,4,2,5,0.00
2013-1-20,40,16,0,21,11,-3,100,83,36,0.00,40.00,3,2,6,0.00
2013-1-21,37,16,0,24,11,-3,98,82,49,0.00,40.00,5,2,10,0.00
2013-1-22,39,22,6,26,16,5,98,80,42,0.00,40.00,9,4,15,0.00
2013-1-23,47,41,36,38,26,17,100,58,35,0.00,40.00,19,8,26,0.07
2013-1-24,45,37,31,44,37,31,100,100,98,0.00,40.00,8,4,11,0.07
2013-1-25,39,34,31,39,34,31,100,100,100,0.00,40.00,8,4,12,0.13
2013-1-26,38,33,28,34,32,28,100,95,75,0.00,40.00,11,7,17,0.02
2013-1-27,35,29,23,30,26,23,100,90,70,0.00,40.00,14,7,20,0.01
2013-1-28,34,31,28,33,30,28,100,98,83,0.00,40.00,17,10,24,0.00
2013-1-29,44,34,29,36,32,29,100,92,70,0.00,40.00,17,10,25,0.00
2013-1-30,47,34,25,39,31,25,100,92,56,0.00,40.00,4,3,7,0.00
2013-1-31,43,31,23,39,30,23,100,96,70,0.00,40.00,5,3,7,0.00
2013-2-1,46,31,21,39,30,21,100,95,71,0.00,40.00,5,2,7,0.00
2013-2-2,40,30,22,36,29,22,100,95,78,0.00,40.00,5,2,6,0.00
2013-2-3,49,32,20,36,29,20,100,88,47,0.00,40.00,6,3,7,0.00
2013-2-4,49,35,24,39,32,24,100,90,56,0.00,40.00,6,4,10,0.00
2013-2-5,48,35,28,37,31,27,100,86,45,0.00,40.00,14,6,22,0.00
2013-2-6,47,34,21,32,24,14,100,73,38,0.00,40.00,14,7,23,0.00
2013-2-7,41,31,20,34,27,20,100,88,66,0.00,40.00,12,6,19,0.21
2013-2-8,36,26,11,26,20,11,100,82,49,0.00,40.00,10,5,13,0.01
2013-2-9,41,28,17,31,24,17,100,85,52,0.00,40.00,14,7,17,0.00
2013-2-10,41,31,23,30,26,23,100,84,56,0.00,40.00,10,6,13,0.00
2013-2-11,50,32,18,34,26,18,100,81,46,0.00,40.00,9,4,16,0.00
2013-2-12,47,33,25,34,30,25,100,90,54,0.00,40.00,9,5,13,0.00
2013-2-13,53,36,27,39,32,27,100,89,52,0.00,40.00,8,4,12,0.00
2013-2-14,50,36,25,38,32,25,100,88,51,0.00,40.00,6,3,9,0.00
2013-2-15,53,34,24,39,31,24,100,91,56,0.00,40.00,8,4,10,0.00
2013-2-16,54,37,25,36,30,24,100,79,38,0.00,40.00,13,6,20,0.00
2013-2-17,44,31,21,28,22,11,100,73,26,0.00,40.00,7,4,15,0.00
2013-2-18,44,32,23,31,25,20,100,78,38,0.00,40.00,12,5,20,0.01
2013-2-19,33,28,21,33,27,21,100,98,93,0.00,40.00,12,7,16,0.19
2013-2-20,41,28,11,29,22,11,100,79,43,0.00,40.00,13,6,17,0.02
2013-2-21,37,29,19,30,25,19,100,85,61,0.00,40.00,12,5,17,0.00
2013-2-22,47,34,24,37,31,24,100,88,52,0.00,40.00,23,7,32,0.06
2013-2-23,35,30,22,32,26,21,100,85,66,0.00,40.00,23,11,35,0.06
2013-2-24,43,29,20,29,23,20,100,82,42,0.00,40.00,5,4,8,0.00
2013-2-25,41,34,29,33,26,20,100,75,46,0.00,40.00,20,11,28,0.00
2013-2-26,43,30,20,28,22,13,100,77,32,0.00,40.00,8,4,15,0.00
2013-2-27,50,34,22,34,26,21,100,78,31,0.00,40.00,8,4,12,0.00
2013-2-28,52,41,33,45,39,31,100,92,78,0.00,40.00,8,5,11,0.01
2013-3-1,54,39,31,47,36,31,100,93,55,0.00,40.00,9,3,11,0.01
2013-3-2,55,39,29,47,35,29,100,87,55,0.00,40.00,11,4,15,0.00
2013-3-3,50,41,33,41,35,27,100,82,45,0.00,40.00,11,5,13,0.05
2013-3-4,56,39,22,36,29,21,100,71,37,0.00,40.00,16,6,24,0.02
2013-3-5,45,41,38,39,31,23,98,68,43,0.00,40.00,23,12,39,0.00
2013-3-6,41,34,28,35,30,23,100,86,49,0.00,40.00,19,9,35,0.07
2013-3-7,45,34,24,31,25,19,100,75,36,0.00,40.00,7,5,16,0.01
2013-3-8,48,34,21,30,24,16,100,73,28,0.00,40.00,10,6,17,0.00
2013-3-9,54,40,29,32,24,16,88,59,23,0.00,40.00,9,7,19,0.00
2013-3-10,58,42,24,33,26,10,100,60,15,0.00,40.00,7,4,13,0.00
2013-3-11,62,44,29,40,33,28,100,70,33,0.00,40.00,7,4,12,0.00
2013-3-12,65,46,29,44,34,26,100,70,24,0.00,40.00,7,3,12,0.00
2013-3-13,66,48,33,42,35,31,100,67,31,0.00,40.00,6,4,10,0.00
2013-3-14,67,49,36,39,33,24,85,58,20,0.00,40.00,11,6,17,0.00
2013-3-15,62,46,35,39,33,27,100,66,29,0.00,40.00,16,6,20,0.00
2013-3-16,55,41,27,41,31,22,100,74,28,0.00,40.00,17,9,26,0.00
2013-3-17,49,39,31,31,24,20,80,58,33,0.00,40.00,14,9,25,0.00
2013-3-18,54,38,20,33,24,17,97,61,25,0.00,40.00,7,4,11,0.00
2013-3-19,56,44,32,38,34,29,91,68,44,0.00,40.00,23,10,34,0.00
2013-3-20,56,44,32,44,35,23,86,71,46,0.00,40.00,24,17,35,0.04
2013-3-21,42,33,26,23,20,16,85,60,38,0.00,40.00,17,9,24,0.01
2013-3-22,42,32,23,23,18,13,81,60,35,0.00,40.00,15,10,21,0.00
2013-3-23,50,33,15,24,17,11,96,58,25,0.00,40.00,11,4,15,0.00
2013-3-24,57,40,23,36,25,17,91,58,33,0.00,40.00,11,4,14,0.00
2013-3-25,60,46,29,36,30,22,98,60,23,0.00,40.00,15,7,27,0.00
2013-3-26,54,45,38,42,38,35,99,80,52,0.00,40.00,9,5,13,0.01
2013-3-27,56,44,35,44,38,33,100,84,41,0.00,40.00,16,7,25,0.02
2013-3-28,57,50,35,41,36,33,93,60,42,0.00,40.00,16,11,24,0.00
2013-3-29,65,48,33,41,34,29,100,67,26,0.00,40.00,7,5,12,0.00
2013-3-30,73,52,32,44,34,-100,100,62,17,0.00,40.00,10,6,17,0.00
2013-3-31,53,48,44,46,42,35,98,80,56,0.00,40.00,13,6,20,0.07
2013-4-1,48,43,38,43,41,37,100,93,77,0.00,40.00,11,9,17,0.90
2013-4-2,55,44,35,44,40,35,100,89,65,0.00,40.00,6,4,11,0.01
2013-4-3,65,48,33,49,40,33,100,78,43,0.00,40.00,11,4,18,0.00
2013-4-4,58,51,43,43,39,34,77,63,48,0.00,40.00,21,12,31,0.00
2013-4-5,56,47,37,42,37,29,100,72,36,0.00,40.00,15,8,22,0.00
2013-4-6,56,46,39,41,36,27,98,72,33,0.00,40.00,16,8,29,0.00
2013-4-7,51,44,33,40,35,29,100,72,48,0.00,40.00,23,14,34,0.07
2013-4-8,46,37,29,33,28,26,100,74,48,0.00,40.00,18,13,27,0.07
2013-4-9,60,44,28,40,31,24,94,65,29,0.00,40.00,13,8,19,0.00
2013-4-10,63,48,35,44,40,33,100,76,43,0.00,40.00,20,9,29,0.00
2013-4-11,59,44,28,38,29,17,100,66,20,0.00,40.00,10,6,23,0.00
2013-4-12,66,46,28,41,31,18,100,65,16,0.00,40.00,15,7,21,0.00
2013-4-13,49,43,31,39,27,20,78,55,32,0.00,40.00,19,13,29,0.00
2013-4-14,45,34,21,26,23,16,99,66,33,0.00,40.00,19,8,25,0.00
2013-4-15,41,34,28,30,27,23,95,77,48,0.00,40.00,17,9,26,0.04
2013-4-16,45,34,26,32,26,20,86,71,50,0.00,40.00,18,9,27,0.02
2013-4-17,52,38,25,32,22,13,86,57,23,0.00,40.00,12,7,20,0.00
2013-4-18,62,44,26,39,32,26,99,65,33,0.00,40.00,10,5,18,0.00
2013-4-19,58,46,35,43,37,31,100,74,39,0.00,40.00,22,10,32,0.00
2013-4-20,63,46,27,38,31,25,100,65,26,0.00,40.00,12,6,17,0.00
2013-4-21,65,48,29,39,34,29,100,64,31,0.00,40.00,17,7,24,0.00
2013-4-22,58,46,29,40,27,11,100,56,21,0.00,40.00,13,7,21,0.00
2013-4-23,65,47,27,31,17,10,75,35,13,0.00,40.00,13,7,18,0.00
2013-4-24,67,52,34,28,15,6,66,26,12,0.00,40.00,16,9,25,0.00
2013-4-25,73,52,28,41,28,16,85,48,14,0.00,40.00,16,6,22,0.00
2013-4-26,76,56,33,44,36,22,100,56,13,0.00,40.00,13,5,17,0.00
2013-4-27,76,58,37,43,34,18,96,49,11,0.00,40.00,15,6,22,0.00
2013-4-28,68,56,41,38,32,26,73,45,23,0.00,40.00,15,8,23,0.00
2013-4-29,61,50,39,41,35,27,78,58,35,0.00,40.00,15,10,24,0.00
2013-4-30,59,46,31,32,18,5,91,42,12,0.00,40.00,17,10,25,0.00
2013-5-1,66,48,30,25,14,8,59,31,11,0.00,40.00,15,8,23,0.00
2013-5-2,75,56,30,32,19,11,74,29,9,0.00,40.00,13,7,21,0.00
2013-5-3,77,60,36,36,27,20,79,35,14,0.00,40.00,17,6,24,0.00
2013-5-4,69,57,41,37,29,22,52,35,21,0.00,40.00,17,12,39,0.01
2013-5-5,72,56,39,45,35,29,82,50,20,0.00,40.00,15,8,33,0.08
2013-5-6,71,52,38,49,43,36,92,73,35,0.00,40.00,20,5,38,0.10
2013-5-7,65,54,47,52,48,45,95,82,59,0.00,40.00,19,7,26,0.13
2013-5-8,71,53,39,52,46,38,98,82,46,0.00,40.00,17,4,31,0.19
2013-5-9,75,58,40,53,46,39,99,71,31,0.00,40.00,8,4,13,0.03
2013-5-10,82,64,44,53,43,-100,98,55,23,0.00,40.00,8,4,14,0.01
2013-5-11,85,66,48,55,46,-100,96,55,19,0.00,40.00,13,6,25,0.00
2013-5-12,84,68,50,55,44,34,88,48,17,0.00,40.00,14,7,21,0.00
2013-5-13,77,60,42,45,40,35,87,52,26,0.00,40.00,20,9,31,0.00
2013-5-14,74,56,40,46,38,32,90,57,23,0.00,40.00,17,8,23,0.00
2013-5-15,68,54,41,42,39,35,85,60,30,0.00,40.00,17,8,26,0.00
2013-5-16,59,45,41,45,24,-100,92,75,49,0.00,40.00,10,5,16,0.07
2013-5-17,62,50,41,39,33,-100,87,61,24,0.00,40.00,15,8,24,0.06
2013-5-18,60,46,33,43,36,28,94,69,32,0.00,40.00,18,7,28,0.01
2013-5-19,65,50,32,40,33,29,93,59,26,0.00,40.00,10,6,17,0.00
2013-5-20,74,56,34,42,34,26,94,50,17,0.00,40.00,9,4,17,0.00
2013-5-21,56,47,31,42,32,23,87,59,30,0.00,40.00,24,12,37,0.00
2013-5-22,50,38,23,29,23,18,82,58,35,0.00,40.00,16,10,23,0.00
2013-5-23,55,43,33,34,30,24,94,64,30,0.00,40.00,17,8,25,0.07
2013-5-24,62,46,32,35,30,20,92,59,20,0.00,40.00,15,8,20,0.03
2013-5-25,66,50,33,42,32,24,89,57,21,0.00,40.00,15,7,24,0.00
2013-5-26,62,51,43,44,38,31,85,63,32,0.00,40.00,14,8,24,0.03
2013-5-27,56,48,39,48,42,35,91,79,60,0.00,40.00,13,7,27,0.14
2013-5-28,66,53,43,43,39,32,91,62,29,0.00,40.00,11,8,20,0.04
2013-5-29,63,53,42,44,37,33,82,57,32,0.00,40.00,16,12,25,0.01
2013-5-30,65,49,30,37,30,20,93,57,18,0.00,40.00,14,6,25,0.00
2013-5-31,75,54,32,40,33,14,92,53,10,0.00,40.00,11,5,14,0.00
2013-6-1,79,60,37,45,36,31,86,46,21,0.00,40.00,15,7,23,0.00
2013-6-2,76,60,42,46,36,25,82,50,15,0.00,40.00,13,8,21,0.00
2013-6-3,81,62,37,46,38,27,89,48,14,0.00,40.00,9,5,24,0.00
2013-6-4,84,68,41,47,40,30,89,43,14,0.00,40.00,9,5,16,0.00
2013-6-5,89,70,42,47,41,33,84,43,14,0.00,40.00,9,4,14,0.00
2013-6-6,89,69,46,53,44,32,86,48,13,0.00,40.00,14,6,20,0.00
2013-6-7,88,68,49,55,49,38,87,56,19,0.00,40.00,15,6,19,0.00
2013-6-8,90,70,48,52,45,36,87,49,15,0.00,40.00,12,6,21,0.00
2013-6-9,90,71,47,54,48,43,85,49,23,0.00,40.00,13,6,21,0.00
2013-6-10,81,66,50,49,41,29,79,44,21,0.00,40.00,17,8,23,0.00
2013-6-11,70,57,46,46,38,30,73,51,23,0.00,40.00,18,8,24,0.00
2013-6-12,67,53,37,37,32,21,89,51,18,0.00,40.00,16,10,24,0.00
2013-6-13,61,49,34,37,33,30,89,58,33,0.00,40.00,16,8,25,0.00
2013-6-14,74,52,29,36,29,21,89,50,14,0.00,40.00,9,5,16,0.00
2013-6-15,81,63,33,42,35,26,79,40,17,0.00,40.00,14,6,23,0.00
2013-6-16,79,63,44,47,40,30,89,50,18,0.00,40.00,13,7,22,0.00
2013-6-17,79,59,38,45,40,30,91,54,19,0.00,40.00,16,8,29,0.00
2013-6-18,65,51,42,43,40,37,92,70,35,0.00,40.00,12,7,22,0.38
2013-6-19,56,45,35,42,38,32,89,76,57,0.00,40.00,18,9,31,0.41
2013-6-20,60,45,34,41,36,31,92,74,43,0.00,40.00,14,3,20,0.06
2013-6-22,76,66,50,46,43,41,76,45,30,0.00,40.00,10,6,14,0.00
2013-6-23,66,59,51,52,46,42,83,64,43,0.00,40.00,16,7,22,0.02
2013-6-24,60,53,49,49,46,42,95,78,61,0.00,40.00,17,8,26,0.39
2013-6-25,62,54,49,53,49,44,96,82,68,0.00,40.00,14,6,19,0.15
2013-6-26,74,62,49,56,51,47,97,71,44,0.00,40.00,20,10,28,0.02
2013-6-27,86,68,51,59,51,45,90,61,27,0.00,40.00,10,6,15,0.01
2013-6-28,90,70,52,61,55,50,97,63,28,0.00,40.00,11,4,16,0.00
2013-6-29,88,72,54,59,54,47,91,57,28,0.00,40.00,12,6,18,0.00
2013-6-30,94,70,49,61,53,45,85,59,24,0.00,40.00,7,4,11,0.00
2013-7-1,91,72,56,63,56,50,83,62,26,0.00,40.00,8,5,11,0.00
2013-7-2,98,76,55,67,56,46,87,56,19,0.00,40.00,8,4,26,0.00
2013-7-3,92,77,62,62,57,49,81,53,28,0.00,40.00,14,6,23,0.00
2013-7-4,85,70,53,53,49,44,77,50,28,0.00,40.00,13,7,18,0.00
2013-7-5,84,68,48,52,45,36,81,49,19,0.00,40.00,10,8,15,0.00
2013-7-6,87,64,44,54,46,36,84,58,17,0.00,40.00,11,5,15,0.00
2013-7-7,87,69,47,55,47,41,83,51,23,0.00,40.00,10,5,15,0.00
2013-7-8,90,64,47,51,45,35,83,55,18,0.00,40.00,7,4,12,0.00
2013-7-9,91,71,50,50,37,25,82,37,10,0.00,40.00,16,7,24,0.00
2013-7-10,90,73,53,50,38,-100,62,32,11,0.00,40.00,11,6,21,0.00
2013-7-11,85,66,49,52,46,37,84,52,18,0.00,40.00,13,6,18,0.00
2013-7-12,82,64,43,48,42,37,80,49,23,0.00,40.00,15,6,23,0.00
2013-7-13,85,64,41,48,41,34,83,47,21,0.00,40.00,7,4,15,0.00
2013-7-14,88,68,45,48,41,29,86,45,12,0.00,40.00,7,4,14,0.00
2013-7-15,90,69,45,52,42,34,80,45,14,0.00,40.00,10,5,15,0.00
2013-7-16,85,76,55,47,29,20,39,20,9,0.00,40.00,20,12,27,0.00
2013-7-17,86,66,42,50,35,29,73,37,14,0.00,40.00,8,4,14,0.00
2013-7-18,90,66,45,52,46,38,75,53,22,0.00,40.00,8,4,11,0.00
2013-7-19,94,72,48,55,46,37,77,45,14,0.00,40.00,10,5,15,0.00
2013-7-20,96,70,49,53,48,39,87,52,14,0.00,40.00,12,4,15,0.00
2013-7-21,94,71,47,52,48,41,86,51,17,0.00,40.00,13,4,17,0.00
2013-7-22,94,71,49,55,48,41,77,50,19,0.00,40.00,8,4,11,0.00
2013-7-23,95,71,49,55,46,39,74,45,18,0.00,40.00,11,5,16,0.00
2013-7-24,85,68,53,55,48,39,76,51,28,0.00,40.00,7,4,10,0.00
2013-7-25,94,73,54,55,49,42,73,47,18,0.00,40.00,11,4,25,0.00
2013-7-26,87,71,53,59,52,47,79,54,26,0.00,40.00,10,6,21,0.00
2013-7-27,87,67,49,56,50,40,90,59,29,0.00,40.00,10,4,18,0.00
2013-7-28,84,63,46,46,40,33,73,47,18,0.00,40.00,12,6,19,0.00
2013-7-29,85,62,40,50,40,31,82,50,15,0.00,40.00,15,5,21,0.00
2013-7-30,85,66,42,48,39,32,81,44,15,0.00,40.00,11,6,20,0.00
2013-7-31,83,66,51,49,45,38,76,52,20,0.00,40.00,8,5,16,0.00
2013-8-1,75,59,41,51,41,33,92,57,22,0.00,40.00,16,9,24,0.00
2013-8-2,77,56,30,45,37,28,92,59,18,0.00,40.00,10,5,12,0.00
2013-8-3,82,68,38,47,38,31,82,41,16,0.00,40.00,9,4,16,0.00
2013-8-4,87,71,43,47,39,26,72,37,11,0.00,40.00,8,4,13,0.00
2013-8-5,88,68,47,48,43,35,79,46,15,0.00,40.00,7,4,11,0.00
2013-8-6,90,67,46,49,41,28,83,46,11,0.00,40.00,7,4,11,0.00
2013-8-7,80,65,55,55,49,44,79,59,28,0.00,40.00,15,6,22,0.03
2013-8-8,74,58,41,51,44,38,92,64,35,0.00,40.00,13,6,19,0.01
2013-8-9,76,57,39,51,44,35,91,67,29,0.00,40.00,10,4,22,0.04
2013-8-10,72,60,45,50,46,42,94,63,36,0.00,40.00,10,5,22,0.04
2013-8-11,79,61,37,51,45,35,93,61,27,0.00,40.00,9,5,19,0.00
2013-8-12,82,62,43,50,44,38,90,57,24,0.00,40.00,12,5,27,0.00
2013-8-13,86,64,41,52,44,37,86,55,20,0.00,40.00,7,4,15,0.00
2013-8-14,88,66,45,53,45,40,90,57,20,0.00,40.00,7,4,16,0.00
2013-8-15,89,60,42,48,26,-100,83,44,13,0.00,40.00,16,7,24,0.00
2013-8-16,86,67,44,55,45,-100,87,53,22,0.00,40.00,9,5,18,0.00
2013-8-17,87,68,49,56,48,-100,87,56,27,0.00,40.00,12,5,22,0.00
2013-8-18,90,73,45,56,48,38,88,47,16,0.00,40.00,12,6,17,0.00
2013-8-19,92,74,49,54,39,-100,77,39,18,0.00,40.00,12,7,17,0.00
2013-8-20,89,69,45,53,45,-100,85,49,21,0.00,40.00,7,4,14,0.00
2013-8-21,85,73,50,52,44,35,67,38,19,0.00,40.00,18,6,39,0.00
2013-8-22,79,60,45,56,48,41,90,66,27,0.00,40.00,19,6,31,0.08
2013-8-23,81,62,33,50,44,31,93,59,26,0.00,40.00,9,5,13,0.02
2013-8-24,78,61,43,51,46,-100,94,63,33,0.00,40.00,11,5,17,0.00
2013-8-25,72,59,43,49,46,37,89,64,28,0.00,40.00,15,7,29,0.00
2013-8-26,77,65,39,48,41,36,94,47,24,0.00,40.00,16,8,26,0.00
2013-8-27,77,52,36,45,39,34,92,70,22,0.00,40.00,7,4,19,0.00
2013-8-28,83,74,57,42,35,30,47,26,17,0.00,40.00,20,13,29,0.00
2013-8-29,82,69,54,48,40,36,75,38,22,0.00,40.00,17,9,27,0.00
2013-8-30,84,63,40,53,46,38,94,62,25,0.00,40.00,8,5,24,0.00
2013-8-31,89,64,41,50,39,-100,91,50,13,0.00,40.00,14,6,22,0.00
2013-9-1,85,69,51,47,36,22,55,33,10,0.00,40.00,21,11,32,0.00
2013-9-2,80,66,49,49,39,29,75,43,16,0.00,40.00,20,9,29,0.00
2013-9-3,80,62,40,47,36,26,92,48,15,0.00,40.00,17,9,30,0.00
2013-9-4,81,59,31,47,36,20,91,55,11,0.00,40.00,17,7,29,0.00
2013-9-5,71,55,37,48,43,35,93,67,35,0.00,40.00,13,7,23,0.02
2013-9-6,75,54,31,47,40,29,93,65,27,0.00,40.00,8,4,14,0.01
2013-9-7,82,62,37,50,38,-100,90,51,19,0.00,40.00,8,5,13,0.00
2013-9-8,84,67,41,49,41,34,87,45,19,0.00,40.00,9,5,16,0.00
2013-9-9,87,68,42,47,39,29,86,41,13,0.00,40.00,8,4,14,0.00
2013-9-10,87,72,42,43,37,32,72,33,15,0.00,40.00,10,5,19,0.00
2013-9-11,90,74,41,44,36,30,74,31,12,0.00,40.00,9,4,15,0.00
2013-9-12,85,71,51,50,44,35,61,41,21,0.00,40.00,9,5,14,0.00
2013-9-13,88,72,53,51,46,37,80,45,18,0.00,40.00,8,5,16,0.00
2013-9-14,87,68,44,47,38,-100,81,41,17,0.00,40.00,10,5,16,0.00
2013-9-15,82,64,46,44,32,14,80,40,8,0.00,40.00,20,10,31,0.00
2013-9-16,75,58,37,49,42,35,93,62,27,0.00,40.00,11,5,15,0.00
2013-9-17,60,51,39,48,42,35,90,73,56,0.00,40.00,18,8,27,0.13
2013-9-18,48,38,31,36,33,29,93,84,60,0.00,40.00,7,4,9,0.13
2013-9-19,79,54,28,37,30,24,90,51,13,0.00,40.00,7,4,15,0.00
2013-9-20,75,54,30,46,29,12,91,48,10,0.00,40.00,22,10,35,0.23
2013-9-21,55,47,43,48,42,-100,94,84,61,0.00,40.00,11,5,23,0.53
2013-9-22,59,48,35,45,40,33,94,76,51,0.00,40.00,9,5,14,0.05
2013-9-23,70,55,44,49,44,39,94,71,33,0.00,40.00,12,6,19,0.01
2013-9-24,56,48,41,44,41,37,90,77,53,0.00,40.00,15,8,24,0.14
2013-9-25,48,40,32,38,33,29,90,77,49,0.00,40.00,14,7,22,0.14
2013-9-26,54,41,30,35,31,27,91,71,36,0.00,40.00,13,6,21,0.00
2013-9-27,63,43,24,36,29,22,92,64,23,0.00,40.00,9,3,14,0.00
2013-9-28,65,51,39,37,32,-100,79,52,27,0.00,40.00,23,13,33,0.00
2013-9-29,61,56,50,50,44,35,88,67,47,0.00,40.00,19,12,31,0.10
2013-9-30,58,53,44,47,42,35,92,69,49,0.00,40.00,20,13,31,0.08
2013-10-1,55,44,31,35,32,28,89,65,40,0.00,40.00,13,8,21,0.00
2013-10-2,54,38,25,35,28,23,92,71,39,0.00,40.00,20,7,29,0.00
2013-10-3,55,41,28,34,26,21,90,62,27,0.00,40.00,12,7,20,0.00
2013-10-4,62,44,24,31,24,18,87,50,18,0.00,40.00,7,5,15,0.00
2013-10-5,71,46,22,32,24,18,90,54,14,0.00,40.00,9,4,14,0.00
2013-10-6,75,48,23,35,27,18,88,53,15,0.00,40.00,9,4,14,0.00
2013-10-7,61,43,28,34,29,22,88,64,23,0.00,40.00,18,6,27,0.00
2013-10-8,57,38,20,36,29,18,92,73,37,0.00,40.00,16,6,23,0.00
2013-10-9,53,41,33,33,28,26,87,61,38,0.00,40.00,17,9,27,0.00
2013-10-10,61,44,28,34,29,23,86,62,25,0.00,40.00,13,5,20,0.00
2013-10-11,59,40,21,38,28,19,91,67,30,0.00,40.00,7,4,17,0.00
2013-10-12,57,37,22,40,28,-100,90,74,39,0.00,40.00,14,4,25,0.02
2013-10-13,55,41,31,33,29,25,84,64,38,0.00,40.00,8,4,14,0.02
2013-10-14,59,40,20,34,25,16,90,60,26,0.00,40.00,8,4,12,0.00
2013-10-15,61,44,20,31,23,16,87,49,20,0.00,40.00,10,5,17,0.00
2013-10-16,67,41,19,31,23,16,90,57,17,0.00,40.00,8,4,13,0.00
2013-10-17,67,45,27,34,28,21,87,56,26,0.00,40.00,5,3,10,0.00
2013-10-18,68,42,24,35,27,20,90,62,16,0.00,40.00,6,3,12,0.00
2013-10-19,73,45,24,33,25,-100,89,54,15,0.00,40.00,4,3,8,0.00
2013-10-20,72,47,26,36,28,22,89,53,18,0.00,40.00,4,3,9,0.00
2013-10-21,73,48,25,34,28,21,85,54,18,0.00,40.00,6,3,11,0.00
2013-10-22,72,47,28,36,29,22,90,59,18,0.00,40.00,6,3,12,0.00
2013-10-23,73,44,25,35,27,15,91,61,12,0.00,40.00,5,2,8,0.00
2013-10-24,72,47,27,32,28,22,89,54,17,0.00,40.00,6,3,9,0.00
2013-10-25,71,45,26,32,25,19,85,54,18,0.00,40.00,4,3,10,0.00
2013-10-26,72,44,23,32,23,-100,89,54,14,0.00,40.00,7,3,9,0.00
2013-10-27,60,38,20,36,26,15,87,66,26,0.00,40.00,23,8,35,0.00
2013-10-28,40,37,34,35,29,-100,89,74,63,0.00,40.00,18,11,24,0.00
2013-10-29,50,35,21,26,23,17,87,64,38,0.00,40.00,9,4,14,0.00
2013-10-30,56,39,22,35,30,18,91,72,41,0.00,40.00,7,4,10,0.00
2013-10-31,62,41,21,38,30,19,91,70,39,0.00,40.00,6,3,10,0.00
2013-11-1,63,38,20,38,29,17,93,73,33,0.00,40.00,5,3,12,0.00
2013-11-2,49,36,25,41,29,-100,91,78,52,0.00,40.00,17,9,25,0.04
2013-11-3,42,30,18,30,23,15,91,77,48,0.00,40.00,11,6,16,0.01
2013-11-4,46,31,13,29,22,9,89,72,41,0.00,40.00,10,4,15,0.00
2013-11-5,48,37,25,40,32,21,95,84,68,0.00,40.00,8,4,11,0.02
2013-11-6,59,44,31,42,37,30,99,78,47,0.00,40.00,9,4,13,0.01
2013-11-7,62,49,39,40,37,31,93,66,40,0.00,40.00,17,8,27,0.00
2013-11-8,55,38,24,39,29,20,96,75,25,0.00,40.00,5,3,17,0.00
2013-11-9,61,37,17,34,26,-100,93,70,30,0.00,40.00,7,4,12,0.00
2013-11-10,65,45,27,36,25,16,93,54,18,0.00,40.00,14,6,24,0.00
2013-11-11,65,50,36,28,20,14,67,35,15,0.00,40.00,15,8,24,0.00
2013-11-12,67,56,47,40,28,18,74,36,19,0.00,40.00,13,7,19,0.00
2013-11-13,62,45,28,44,34,23,92,67,32,0.00,40.00,8,4,14,0.00
2013-11-14,56,34,18,31,23,13,92,70,20,0.00,40.00,19,7,25,0.00
2013-11-15,45,32,12,32,23,8,92,71,45,0.00,40.00,9,4,17,0.00
2013-11-16,48,37,26,36,27,-100,90,70,50,0.00,40.00,20,10,27,0.00
2013-11-17,51,31,16,34,24,13,94,78,43,0.00,40.00,6,3,9,0.00
2013-11-18,47,36,19,37,29,15,92,77,60,0.00,40.00,14,7,21,0.04
2013-11-19,51,44,40,39,36,35,88,75,59,0.00,40.00,15,9,20,0.09
2013-11-20,44,38,27,42,31,13,96,79,54,0.00,40.00,19,8,25,0.07
2013-11-21,42,30,19,13,2,-5,54,33,15,0.00,40.00,16,9,26,0.01
2013-11-22,52,37,16,16,9,6,72,36,15,0.00,40.00,9,4,13,0.00
2013-11-23,56,38,13,21,13,-100,83,44,19,0.00,40.00,6,3,10,0.00
2013-11-24,52,27,9,22,13,5,87,62,19,0.00,40.00,5,2,8,0.00
2013-11-25,54,29,10,24,15,7,88,61,22,0.00,40.00,6,3,9,0.00
2013-11-26,52,29,16,25,19,13,87,69,33,0.00,40.00,6,3,9,0.00
2013-11-27,48,32,22,29,23,17,89,72,39,0.00,40.00,4,3,7,0.00
2013-11-28,56,33,16,30,23,13,91,70,31,0.00,40.00,5,3,7,0.00
2013-11-29,55,32,15,29,22,12,92,70,33,0.00,40.00,4,2,7,0.00
2013-11-30,55,38,28,36,27,-100,94,70,47,0.00,40.00,5,3,7,0.00
2013-12-1,58,40,28,39,32,26,95,77,44,0.00,40.00,10,5,16,0.00
2013-12-2,47,41,29,39,32,21,88,70,57,0.00,40.00,23,13,45,0.05
2013-12-3,31,24,12,21,13,0,88,65,44,0.00,40.00,16,8,25,0.01
2013-12-4,26,13,2,7,2,-3,84,65,41,0.00,40.00,7,3,12,0.00
2013-12-5,26,11,-4,12,2,-10,82,66,39,0.00,40.00,6,3,7,0.00
2013-12-6,30,20,10,21,13,3,90,74,50,0.00,40.00,19,8,29,0.06
2013-12-7,20,8,-13,17,1,-100,88,75,63,0.00,40.00,16,7,21,0.07
2013-12-8,8,-8,-19,2,-15,-27,77,71,65,0.00,40.00,6,2,8,0.01
2013-12-9,14,-3,-16,7,-9,-24,77,72,67,0.00,40.00,6,2,8,0.00
2013-12-10,19,6,-7,11,0,-13,84,75,69,0.00,40.00,3,2,7,0.00
2013-12-11,27,9,-4,17,3,-10,85,78,66,0.00,40.00,4,2,5,0.00
2013-12-12,27,14,-2,20,9,-8,85,79,65,0.00,40.00,5,3,10,0.00
2013-12-13,41,28,16,32,23,13,90,81,68,0.00,40.00,6,3,7,0.00
2013-12-14,31,20,15,29,16,-100,91,88,86,0.00,40.00,5,2,6,0.00
2013-12-15,33,18,10,30,15,6,90,87,83,0.00,40.00,4,2,5,0.00
2013-12-16,40,21,9,31,17,5,92,84,67,0.00,40.00,4,2,7,0.00
2013-12-17,42,23,11,29,18,7,91,80,57,0.00,40.00,5,3,7,0.00
2013-12-18,39,26,9,30,21,5,92,81,61,0.00,40.00,11,4,18,0.00
2013-12-19,33,26,11,26,14,6,87,63,39,0.00,40.00,13,8,25,0.00
2013-12-20,39,25,9,36,17,4,89,72,41,0.00,40.00,8,4,12,0.00
2013-12-21,47,37,28,36,32,-100,95,83,63,0.00,40.00,11,8,16,0.00
2013-12-22,51,34,25,40,30,23,96,85,59,0.00,40.00,8,4,11,0.00
2013-12-23,47,33,20,38,29,18,96,87,67,0.00,40.00,7,3,12,0.00
2013-12-24,37,29,21,34,29,19,100,97,90,0.00,40.00,7,4,12,0.00
2013-12-25,34,24,18,34,23,17,100,96,93,0.00,40.00,5,2,7,0.00
2013-12-26,47,26,13,36,22,10,98,86,45,0.00,40.00,4,2,6,0.00
2013-12-27,34,23,10,30,21,7,97,90,77,0.00,40.00,7,3,13,0.00
2013-12-28,47,26,11,28,16,-100,96,74,30,0.00,40.00,7,3,10,0.00
2013-12-29,42,24,11,21,15,8,88,72,34,0.00,40.00,7,4,9,0.00
2013-12-30,43,27,14,23,18,11,92,72,39,0.00,40.00,6,3,7,0.00
2013-12-31,55,34,22,25,21,17,93,66,24,0.00,40.00,4,3,7,0.00
2014-1-1,50,29,16,26,20,15,94,73,34,0.00,40.00,6,3,8,0.00
2014-1-2,51,30,14,27,22,12,94,74,37,0.00,40.00,5,3,7,0.00